FW8291 Weather Reports


time (UTC)temp
F
wind
direction
speed
knots
gust
knots
rain 1hr
in
rain 24hr
in
rain mn
in
humidity
%
barometer
mb
20260507075701 53 358 0.9 1.7 0.00 0.00 0.00 90 1018.4
20260507075202 53 344 0.0 0.0 0.00 0.00 0.00 90 1018.4
20260507074929 53 344 0.0 0.0 0.00 0.00 0.00 90 1018.5
20260507074203 53 344 0.0 0.0 0.00 0.00 0.00 90 1018.5
20260507073700 53 344 0.0 0.0 0.00 0.00 0.00 90 1018.4
20260507073203 54 344 0.0 0.0 0.00 0.00 0.00 90 1018.4
20260507072700 54 344 0.0 0.0 0.00 0.00 0.00 90 1018.4
20260507072202 54 344 0.0 0.9 0.00 0.00 0.00 90 1018.4
20260507071700 54 344 0.0 0.9 0.00 0.00 0.00 90 1018.4
20260507071201 54 307 0.0 0.0 0.00 0.00 0.00 90 1018.4
20260507070700 54 307 0.0 0.0 0.00 0.00 0.00 90 1018.4
20260507070201 54 307 0.0 0.0 0.00 0.00 0.00 90 1018.5
20260507065659 54 296 0.0 0.0 0.00 0.00 0.00 90 1018.5
20260507065200 54 344 0.0 0.0 0.00 0.00 0.00 90 1018.5
20260507064659 54 344 0.0 0.0 0.00 0.00 0.00 90 1018.5
20260507064200 54 344 0.0 0.0 0.00 0.00 0.00 90 1018.5
20260507063658 54 344 0.0 1.7 0.00 0.00 0.00 90 1018.5
20260507063200 54 341 0.0 1.7 0.00 0.00 0.00 90 1018.5
20260507062659 54 343 0.0 0.9 0.00 0.00 0.00 90 1018.4
20260507062422 54 266 0.0 0.0 0.00 0.00 0.00 90 1018.4
20260507061658 54 292 0.0 1.7 0.00 0.00 0.00 90 1018.5
20260507061159 54 292 0.0 1.7 0.00 0.00 0.00 90 1018.5
20260507060700 54 11 0.0 0.9 0.00 0.00 0.00 90 1018.5
20260507060200 54 241 0.0 0.0 0.00 0.00 0.00 90 1018.5
20260507055658 54 354 0.0 0.0 0.00 0.00 0.00 90 1018.5
20260507055200 54 354 0.0 0.0 0.00 0.00 0.00 90 1018.5
20260507054658 54 354 0.0 0.0 0.00 0.00 0.00 90 1018.5
20260507054159 54 354 0.0 0.0 0.00 0.00 0.00 90 1018.5
20260507053923 54 354 0.0 1.7 0.00 0.00 0.00 90 1018.5
20260507053159 54 354 0.0 1.7 0.00 0.00 0.00 90 1018.4
20260507052656 54 345 0.0 0.0 0.00 0.00 0.00 90 1018.6
20260507052158 54 345 0.0 0.0 0.00 0.00 0.00 90 1018.6
20260507051657 54 345 0.0 0.0 0.00 0.00 0.00 90 1018.7
20260507051158 54 345 0.0 0.9 0.00 0.00 0.00 90 1018.7
20260507050656 55 345 0.0 1.7 0.00 0.00 0.00 90 1018.7
20260507050158 55 355 0.0 1.7 0.00 0.00 0.00 90 1018.6
20260507045657 55 7 0.0 0.9 0.00 0.00 0.00 90 1018.6
20260507045158 55 252 0.0 0.0 0.00 0.00 0.00 90 1018.7
20260507044656 55 340 0.0 0.9 0.00 0.00 0.00 90 1018.7
20260507044158 55 341 0.0 0.9 0.00 0.00 0.00 90 1018.7
20260507043656 55 285 0.0 0.0 0.00 0.00 0.00 90 1018.7
20260507043157 55 292 0.0 0.0 0.00 0.00 0.00 90 1018.7
20260507042917 55 292 0.0 0.0 0.00 0.00 0.00 90 1018.7
20260507042158 55 292 0.0 0.9 0.00 0.00 0.00 90 1018.6
20260507041656 55 293 0.0 0.9 0.00 0.00 0.00 90 1018.6
20260507041157 55 290 0.0 0.9 0.00 0.00 0.00 90 1018.6
20260507040655 55 269 0.0 0.9 0.00 0.00 0.00 90 1018.5
20260507040157 55 7 0.0 0.0 0.00 0.00 0.00 90 1018.5
20260507040141 55 7 0.0 0.0 0.00 0.00 0.00 90 1018.5
20260507035157 55 252 0.0 0.9 0.00 0.00 0.00 89 1018.4
20260507034915 55 252 0.0 0.9 0.00 0.00 0.00 89 1018.3
20260507034157 55 245 0.0 1.7 0.00 0.00 0.00 89 1018.4
20260507033655 55 334 0.0 1.7 0.00 0.00 0.00 89 1018.5
20260507033156 55 345 0.0 0.9 0.00 0.00 0.00 89 1018.4
20260507032655 55 313 0.0 1.7 0.00 0.00 0.00 89 1018.4
20260507032157 55 354 0.0 1.7 0.00 0.00 0.00 89 1018.3
20260507031653 55 262 0.0 1.7 0.00 0.00 0.00 89 1018.2
20260507031156 55 268 0.0 1.7 0.00 0.00 0.00 89 1018.2
20260507031139 55 269 0.0 1.7 0.00 0.00 0.00 89 1018.2
20260507030155 56 355 0.0 0.9 0.00 0.00 0.00 89 1018.1
20260507025655 56 290 0.0 0.9 0.00 0.00 0.00 89 1018.1
20260507025156 56 345 0.0 0.9 0.00 0.00 0.00 89 1018.1
20260507024653 56 3 0.0 2.6 0.00 0.00 0.00 89 1018.0
20260507024154 56 348 0.0 2.6 0.00 0.00 0.00 89 1018.0
20260507023654 56 345 0.9 1.7 0.00 0.00 0.00 88 1018.0
20260507023154 56 333 0.0 0.9 0.00 0.00 0.00 88 1018.0
20260507022653 56 348 0.0 0.9 0.00 0.00 0.00 88 1018.0
20260507022418 56 303 0.0 0.9 0.00 0.00 0.00 88 1018.0
20260507021653 56 310 0.0 0.9 0.00 0.00 0.00 88 1017.9
20260507021414 56 300 0.0 1.7 0.00 0.00 0.00 88 1018.0
20260507020653 56 320 0.9 1.7 0.00 0.00 0.00 88 1018.0
20260507020153 56 20 0.0 1.7 0.00 0.00 0.00 88 1018.1
20260507015653 56 350 0.0 1.7 0.00 0.00 0.00 88 1018.1
20260507015153 56 336 0.0 1.7 0.00 0.00 0.00 87 1018.1
20260507014652 56 348 0.0 0.9 0.00 0.00 0.00 87 1018.1
20260507014153 56 338 0.0 0.9 0.00 0.00 0.00 87 1018.1
20260507013652 56 278 0.0 1.7 0.00 0.00 0.00 87 1018.2
20260507013154 56 351 0.0 1.7 0.00 0.00 0.00 87 1018.2
20260507012652 57 321 0.0 2.6 0.00 0.00 0.00 87 1018.2
20260507012153 57 0 0.9 2.6 0.00 0.00 0.00 87 1018.1
20260507011650 57 343 0.9 2.6 0.00 0.00 0.00 87 1018.2
20260507011153 57 216 0.0 2.6 0.00 0.00 0.00 87 1018.2
20260507010651 57 338 0.0 2.6 0.00 0.00 0.00 86 1018.1
20260507010153 57 330 0.0 1.7 0.00 0.00 0.00 86 1018.2
20260507005652 57 275 0.0 1.7 0.00 0.00 0.00 86 1018.2
20260507005647 57 334 0.0 1.7 0.00 0.00 0.00 86 1018.1
20260507004651 58 343 0.0 2.6 0.00 0.00 0.00 86 1018.2
20260507004152 58 343 0.9 2.6 0.00 0.00 0.00 86 1018.1
20260507003649 58 330 0.0 2.6 0.00 0.00 0.00 86 1018.0
20260507003151 58 321 0.0 2.6 0.00 0.00 0.00 86 1018.1
20260507002651 58 340 0.0 2.6 0.00 0.00 0.00 86 1018.0
20260507002151 58 285 0.0 2.6 0.00 0.00 0.00 85 1018.1
20260507001650 58 314 0.0 1.7 0.00 0.00 0.00 85 1018.2
20260507001151 58 275 0.0 1.7 0.00 0.00 0.00 85 1018.1
20260507000650 58 326 0.0 1.7 0.00 0.00 0.00 85 1018.2
20260507000151 58 295 0.9 1.7 0.00 0.00 0.00 85 1018.1
20260506235650 59 336 0.0 1.7 0.00 0.00 0.00 85 1018.1
20260506235151 59 348 0.9 1.7 0.00 0.00 0.00 85 1018.1
20260506234649 59 331 0.0 1.7 0.00 0.00 0.00 85 1018.2
20260506234151 59 350 0.9 1.7 0.00 0.00 0.00 84 1018.2
20260506233649 59 307 0.0 1.7 0.00 0.00 0.00 84 1018.1
20260506233150 59 296 0.0 1.7 0.00 0.00 0.00 84 1018.2
20260506232649 59 358 0.0 1.7 0.00 0.00 0.00 84 1018.2
20260506232151 59 345 0.0 4.3 0.00 0.00 0.00 84 1018.2
20260506231919 59 327 0.0 4.3 0.00 0.00 0.00 83 1018.2
20260506231148 59 4 1.7 2.6 0.00 0.00 0.00 83 1018.2
20260506230648 60 348 0.9 2.6 0.00 0.00 0.00 83 1018.2
20260506225905 60 347 0.9 1.7 0.00 0.00 0.00 83 1018.4
20260506225150 60 340 0.0 3.5 0.00 0.00 0.00 83 1018.4
20260506224850 60 334 0.9 2.6 0.00 0.00 0.00 82 1018.5
20260506224741 60 355 0.9 3.5 0.00 0.00 0.00 83 1018.5
20260506223648 60 306 0.9 2.6 0.00 0.00 0.00 82 1018.6
20260506223150 60 321 0.0 1.7 0.00 0.00 0.00 82 1018.7
20260506222909 61 321 0.0 2.6 0.00 0.00 0.00 81 1018.6
20260506222414 61 265 0.9 2.6 0.00 0.00 0.00 81 1018.7
20260506221648 61 348 0.9 1.7 0.00 0.00 0.00 81 1018.7
20260506221148 61 347 0.0 1.7 0.00 0.00 0.00 81 1018.8
20260506220647 62 324 0.0 1.7 0.00 0.00 0.00 80 1018.9
20260506220635 62 262 0.0 1.7 0.00 0.00 0.00 79 1018.9
20260506215647 62 333 0.0 2.6 0.00 0.00 0.00 80 1019.0
20260506215148 62 345 0.9 2.6 0.00 0.00 0.00 79 1019.0
20260506214647 62 357 0.9 1.7 0.00 0.00 0.00 79 1019.0
20260506214148 63 340 0.0 1.7 0.00 0.00 0.00 78 1019.0
20260506213646 63 279 0.0 1.7 0.00 0.00 0.00 79 1019.0
20260506213414 63 340 0.9 1.7 0.00 0.00 0.00 78 1019.1
20260506212646 63 289 0.0 1.7 0.00 0.00 0.00 76 1019.0
20260506212148 63 321 0.0 2.6 0.00 0.00 0.00 76 1019.0
20260506211646 64 312 0.0 2.6 0.00 0.00 0.00 77 1019.0
20260506211147 64 351 0.9 1.7 0.00 0.00 0.00 77 1019.0
20260506210644 64 347 0.0 1.7 0.00 0.00 0.00 77 1019.0
20260506210145 64 357 0.0 1.7 0.00 0.00 0.00 77 1019.0
20260506205644 64 333 0.0 1.7 0.00 0.00 0.00 77 1019.0
20260506205146 64 309 0.9 1.7 0.00 0.00 0.00 77 1019.1
20260506204645 64 337 0.9 1.7 0.00 0.00 0.00 76 1019.1
20260506204146 64 345 0.0 1.7 0.00 0.00 0.00 76 1019.1
20260506203903 64 351 0.9 1.7 0.00 0.00 0.00 75 1019.1
20260506203146 64 274 0.0 1.7 0.00 0.00 0.00 75 1019.2
20260506202645 65 283 0.0 1.7 0.00 0.00 0.00 75 1019.2
20260506202144 65 293 0.0 1.7 0.00 0.00 0.00 74 1019.3
20260506201643 65 350 0.0 1.7 0.00 0.00 0.00 75 1019.2
20260506201145 65 343 0.0 2.6 0.00 0.00 0.00 73 1019.2
20260506200644 66 279 0.0 2.6 0.00 0.00 0.00 72 1019.2
20260506200146 65 329 0.0 2.6 0.00 0.00 0.00 75 1019.2
20260506195645 65 343 0.9 1.7 0.00 0.00 0.00 74 1019.3
20260506195146 65 264 0.0 1.7 0.00 0.00 0.00 73 1019.3
20260506194644 65 309 0.0 0.9 0.00 0.00 0.00 74 1019.3
20260506194403 65 320 0.0 1.7 0.00 0.00 0.00 74 1019.4
20260506193641 65 266 0.0 1.7 0.00 0.00 0.00 74 1019.4
20260506193144 65 285 0.0 1.7 0.00 0.00 0.00 74 1019.4
20260506192642 65 269 0.0 1.7 0.00 0.00 0.00 72 1019.4
20260506192145 65 319 0.0 1.7 0.00 0.00 0.00 74 1019.5
20260506191905 65 341 0.0 1.7 0.00 0.00 0.00 73 1019.4
20260506191144 65 353 0.0 0.9 0.00 0.00 0.00 73 1019.5
20260506190643 65 293 0.0 1.7 0.00 0.00 0.00 73 1019.6
20260506190404 65 319 0.0 1.7 0.00 0.00 0.00 74 1019.6
20260506185914 65 324 0.0 0.9 0.00 0.00 0.00 74 1019.5
20260506185143 65 321 0.0 0.9 0.00 0.00 0.00 75 1019.5
20260506184643 64 310 0.0 0.9 0.00 0.00 0.00 77 1019.4
20260506184143 64 329 0.0 0.9 0.00 0.00 0.00 77 1019.5
20260506183643 63 333 0.0 1.7 0.00 0.00 0.00 77 1019.6
20260506183144 63 336 0.0 1.7 0.00 0.00 0.00 77 1019.6
20260506182643 62 1 0.0 1.7 0.00 0.00 0.00 79 1019.6
20260506182144 62 18 0.9 1.7 0.00 0.00 0.00 79 1019.6
20260506181642 62 278 0.0 1.7 0.00 0.00 0.00 81 1019.6
20260506181144 61 309 0.0 0.9 0.00 0.00 0.00 80 1019.5
20260506180640 61 337 0.0 0.9 0.00 0.00 0.00 81 1019.5
20260506180141 60 319 0.0 0.9 0.00 0.00 0.00 80 1019.5
20260506175640 60 334 0.0 0.9 0.00 0.00 0.00 81 1019.4
20260506175403 60 333 0.0 0.9 0.00 0.00 0.00 81 1019.4
20260506174641 60 334 0.0 0.9 0.00 0.00 0.00 81 1019.5
20260506174143 60 293 0.0 0.9 0.00 0.00 0.00 81 1019.5
20260506173903 60 341 0.0 1.7 0.00 0.00 0.00 81 1019.4
20260506173143 60 347 0.9 1.7 0.00 0.00 0.00 82 1019.4
20260506172641 60 312 0.0 0.9 0.00 0.00 0.00 83 1019.4
20260506172143 60 302 0.0 0.9 0.00 0.00 0.00 83 1019.4
20260506171641 60 330 0.0 0.9 0.00 0.00 0.00 83 1019.4
20260506171142 59 314 0.0 0.0 0.00 0.00 0.00 84 1019.4
20260506170641 59 314 0.0 0.9 0.00 0.00 0.00 84 1019.5
20260506170142 59 272 0.0 0.9 0.00 0.00 0.00 84 1019.4
20260506165640 59 347 0.0 0.9 0.00 0.00 0.00 84 1019.5
20260506165141 59 348 0.0 0.9 0.00 0.00 0.00 84 1019.4
20260506164905 59 347 0.0 0.0 0.00 0.00 0.00 85 1019.4
20260506164142 59 314 0.0 0.0 0.00 0.00 0.00 85 1019.4
20260506163642 59 313 0.0 0.0 0.00 0.00 0.00 85 1019.4
20260506163141 58 7 0.0 0.9 0.00 0.00 0.00 85 1019.4
20260506162640 58 7 0.0 0.9 0.00 0.00 0.00 85 1019.4
20260506162409 58 358 0.0 0.0 0.00 0.00 0.00 86 1019.4
20260506161639 58 358 0.0 0.9 0.00 0.00 0.00 86 1019.4
20260506161141 58 358 0.0 0.9 0.00 0.00 0.00 87 1019.3
20260506160639 57 285 0.0 0.0 0.00 0.00 0.00 87 1019.3
20260506160141 57 282 0.0 0.0 0.00 0.00 0.00 87 1019.4
20260506155639 57 282 0.0 0.0 0.00 0.00 0.00 88 1019.5
20260506155140 57 282 0.0 0.0 0.00 0.01 0.00 88 1019.4
20260506154639 57 282 0.0 0.0 0.00 0.01 0.00 88 1019.4
20260506154141 57 282 0.0 0.0 0.00 0.01 0.00 88 1019.4
20260506153638 57 282 0.0 0.0 0.00 0.01 0.00 88 1019.3
20260506153631 56 282 0.0 0.0 0.00 0.01 0.00 88 1019.3
20260506152638 56 282 0.0 0.0 0.00 0.01 0.00 89 1019.3
20260506152140 56 282 0.0 0.0 0.00 0.01 0.00 88 1019.3
20260506151639 56 282 0.0 0.0 0.00 0.01 0.00 88 1019.3
20260506151139 56 282 0.0 0.0 0.00 0.01 0.00 89 1019.2
20260506150903 56 282 0.0 0.0 0.00 0.01 0.00 89 1019.2
20260506150139 56 282 0.0 0.0 0.00 0.01 0.00 89 1019.2
20260506145637 56 282 0.0 0.0 0.00 0.01 0.00 89 1019.1
20260506145138 56 282 0.0 0.0 0.00 0.01 0.00 89 1019.1
20260506144637 56 145 0.0 0.0 0.00 0.01 0.00 89 1019.1
20260506144138 56 145 0.0 0.0 0.00 0.01 0.00 89 1019.0
20260506143903 56 147 0.0 0.0 0.00 0.01 0.00 89 1019.1
20260506143139 55 145 0.0 0.0 0.00 0.01 0.00 90 1019.1
20260506142636 55 145 0.0 0.0 0.00 0.01 0.00 90 1019.1
20260506142140 55 145 0.0 0.0 0.00 0.01 0.00 90 1019.0
20260506141636 0 0.0 0.0 0.00 0.01 0.00 1019.0
20260506141137 0 0.0 0.0 0.00 0.01 0.00 1018.9
20260506140633 0 0.0 0.0 0.00 0.01 0.00 1018.9
20260506140135 0 0.0 0.0 0.00 0.01 0.00 1018.8
20260506135633 0 0.0 0.0 0.00 0.01 0.00 1018.7
20260506135132 0 0.0 0.0 0.00 0.01 0.00 1018.7
20260506134628 0 0.0 0.0 0.00 0.01 0.00 1018.6
20260506134129 0 0.0 0.0 0.00 0.01 0.00 1018.6
20260506133626 0 0.0 0.0 0.00 0.01 0.00 1018.6
20260506133127 0 0.0 0.0 0.00 0.01 0.00 1018.6
20260506132624 0 0.0 0.0 0.00 0.01 0.00 1018.4
20260506132341 0 0.0 0.0 0.00 0.01 0.00 1018.4
20260506131622 0 0.0 0.0 0.00 0.01 0.00 1018.4
20260506131122 0 0.0 0.0 0.00 0.01 0.00 1018.3
20260506130620 0 0.0 0.0 0.00 0.01 0.00 1018.3
20260506130121 0 0.0 0.0 0.00 0.01 0.00 1018.3
20260506125617 0 0.0 0.0 0.00 0.01 0.00 1018.3
20260506125118 0 0.0 0.0 0.00 0.01 0.00 1018.3
20260506124614 57 162 0.0 0.0 0.00 0.01 0.00 100 1018.3
20260506124339 57 162 0.0 0.0 0.00 0.01 0.00 100 1018.2
20260506123613 54 162 0.0 0.0 0.00 0.01 0.00 90 1018.2
20260506123115 54 162 0.0 0.0 0.00 0.01 0.00 90 1018.2
20260506122613 54 162 0.0 0.0 0.00 0.01 0.00 90 1018.1
20260506122345 54 162 0.0 0.0 0.00 0.01 0.00 90 1018.1
20260506121613 54 162 0.0 0.0 0.00 0.01 0.00 90 1018.0
20260506121114 54 162 0.0 0.0 0.00 0.01 0.00 90 1018.0
20260506120835 54 162 0.0 0.0 0.00 0.01 0.00 90 1018.0
20260506120114 54 162 0.0 0.0 0.00 0.01 0.00 90 1017.9
20260506115612 54 162 0.0 0.0 0.00 0.01 0.00 90 1018.0
20260506115116 54 162 0.0 0.0 0.00 0.01 0.00 90 1017.9
20260506114612 54 162 0.0 0.0 0.00 0.01 0.00 90 1017.8
20260506114113 54 162 0.0 0.0 0.00 0.01 0.00 90 1017.8
20260506113612 54 162 0.0 0.0 0.00 0.01 0.00 90 1017.9
20260506113113 54 162 0.0 0.0 0.00 0.01 0.00 90 1017.9
20260506112612 54 162 0.0 0.0 0.00 0.01 0.00 90 1017.9
20260506112113 54 162 0.0 0.0 0.00 0.01 0.00 89 1017.8
20260506111613 54 162 0.0 0.0 0.00 0.01 0.00 89 1017.7
20260506111113 54 162 0.0 0.0 0.00 0.01 0.00 89 1017.7
20260506110837 54 162 0.0 0.0 0.00 0.01 0.00 89 1017.7
20260506110113 54 162 0.0 0.0 0.00 0.01 0.00 89 1017.7
20260506105611 54 162 0.0 0.0 0.00 0.01 0.00 89 1017.7
20260506105113 54 162 0.0 0.0 0.00 0.01 0.00 89 1017.6
20260506104611 55 162 0.0 0.0 0.00 0.01 0.00 89 1017.6
20260506104112 55 162 0.0 0.0 0.00 0.01 0.00 89 1017.7
20260506103610 55 162 0.0 0.0 0.00 0.01 0.00 89 1017.7
20260506103338 55 162 0.0 0.0 0.00 0.01 0.00 89 1017.6
20260506102611 55 162 0.0 0.0 0.00 0.01 0.00 89 1017.6
20260506102111 55 162 0.0 0.0 0.00 0.01 0.00 89 1017.6
20260506101610 55 162 0.0 0.0 0.00 0.01 0.00 89 1017.6
20260506101112 55 162 0.0 0.0 0.00 0.01 0.00 89 1017.6
20260506100610 55 162 0.0 0.0 0.00 0.01 0.00 89 1017.6
20260506100111 55 162 0.0 0.0 0.00 0.01 0.00 89 1017.5
20260506095610 55 162 0.0 0.0 0.00 0.01 0.00 89 1017.6
20260506095111 55 162 0.0 0.0 0.00 0.02 0.00 89 1017.6
20260506094610 55 162 0.0 0.0 0.00 0.02 0.00 89 1017.6
20260506094559 55 162 0.0 0.0 0.00 0.02 0.00 89 1017.7
20260506093609 55 162 0.0 0.0 0.00 0.02 0.00 89 1017.6
20260506093112 55 162 0.0 0.0 0.00 0.02 0.00 89 1017.5
20260506092609 55 162 0.0 0.0 0.00 0.02 0.00 89 1017.6
20260506092558 55 162 0.0 0.0 0.00 0.02 0.00 89 1017.5
20260506091609 55 162 0.0 0.0 0.00 0.02 0.00 89 1017.6
20260506091110 55 162 0.0 0.0 0.00 0.02 0.00 89 1017.5
20260506090609 55 162 0.0 0.0 0.00 0.02 0.00 89 1017.5
20260506090110 55 162 0.0 0.0 0.00 0.02 0.00 89 1017.5
20260506085609 56 162 0.0 0.0 0.00 0.02 0.00 89 1017.5
20260506085109 56 162 0.0 0.0 0.00 0.02 0.00 89 1017.5
20260506084608 56 166 0.0 0.0 0.00 0.02 0.00 89 1017.5
20260506084329 56 166 0.0 0.0 0.00 0.03 0.00 89 1017.5
20260506083608 56 166 0.0 0.0 0.00 0.04 0.00 89 1017.6
20260506083109 56 166 0.0 0.0 0.00 0.04 0.00 89 1017.6
20260506082608 56 166 0.0 0.0 0.00 0.05 0.00 89 1017.6
20260506082110 56 166 0.0 0.0 0.00 0.05 0.00 89 1017.7
20260506081607 56 166 0.0 0.0 0.00 0.05 0.00 89 1017.7
20260506081109 56 166 0.0 0.0 0.00 0.06 0.00 89 1017.7
20260506080608 56 166 0.0 0.0 0.00 0.06 0.00 89 1017.7
20260506080108 56 166 0.0 0.0 0.00 0.06 0.00 89 1017.7